Time,TemperatureF,DewpointF,PressureIn,WindDirection,WindDirectionDegrees,WindSpeedMPH,WindSpeedGustMPH,Humidity,HourlyPrecipIn,Conditions,Clouds,dailyrainin,SoftwareType,DateUTC
2013-09-04 00:01:00,81.9,74.0,30.01,WNW,291,0.0,0.0,78,0.00,,,0.00,weatherlink.com 1.10,2013-09-04 04:01:00,
2013-09-04 00:16:00,81.4,74.0,30.01,WNW,292,0.0,1.0,77,0.00,,,0.00,weatherlink.com 1.10,2013-09-04 04:16:00,
2013-09-04 00:31:00,81.4,73.0,30.02,West,275,0.0,0.0,75,0.00,,,0.00,weatherlink.com 1.10,2013-09-04 04:31:00,
2013-09-04 00:46:00,81.9,74.0,30.02,WSW,253,0.0,3.0,77,0.00,,,0.00,weatherlink.com 1.10,2013-09-04 04:46:00,
2013-09-04 01:01:00,81.9,74.0,30.02,SSW,212,5.0,7.0,77,0.00,,,0.00,weatherlink.com 1.10,2013-09-04 05:01:00,
2013-09-04 01:16:00,81.7,74.0,30.02,SSW,213,6.0,7.0,77,0.00,,,0.00,weatherlink.com 1.10,2013-09-04 05:16:00,
2013-09-04 01:31:00,81.7,74.0,30.01,SW,217,4.0,7.0,77,0.00,,,0.00,weatherlink.com 1.10,2013-09-04 05:31:00,
2013-09-04 01:46:00,81.7,74.0,30.01,West,271,2.0,6.0,77,0.00,,,0.00,weatherlink.com 1.10,2013-09-04 05:46:00,
2013-09-04 02:01:00,81.6,74.0,30.01,WSW,237,4.0,6.0,78,0.00,,,0.00,weatherlink.com 1.10,2013-09-04 06:01:00,
2013-09-04 02:16:00,81.6,73.0,30.00,WNW,294,0.0,7.0,76,0.00,,,0.00,weatherlink.com 1.10,2013-09-04 06:16:00,
2013-09-04 02:31:00,81.0,72.0,30.00,WNW,287,0.0,4.0,73,0.00,,,0.00,weatherlink.com 1.10,2013-09-04 06:31:00,
2013-09-04 02:46:00,80.0,71.0,30.00,WNW,300,0.0,0.0,73,0.00,,,0.00,weatherlink.com 1.10,2013-09-04 06:46:00,
2013-09-04 03:01:00,79.3,70.0,30.00,WNW,287,0.0,3.0,72,0.00,,,0.00,weatherlink.com 1.10,2013-09-04 07:01:00,
2013-09-04 03:16:00,79.4,69.0,30.00,WNW,282,3.0,3.0,70,0.00,,,0.00,weatherlink.com 1.10,2013-09-04 07:16:00,
2013-09-04 03:31:00,79.7,69.0,30.00,West,259,4.0,5.0,69,0.00,,,0.00,weatherlink.com 1.10,2013-09-04 07:31:00,
2013-09-04 03:46:00,80.2,71.0,29.99,WNW,289,0.0,5.0,74,0.00,,,0.00,weatherlink.com 1.10,2013-09-04 07:46:00,
2013-09-04 04:01:00,79.8,70.0,30.00,West,275,0.0,0.0,73,0.00,,,0.00,weatherlink.com 1.10,2013-09-04 08:01:00,
2013-09-04 04:16:00,79.2,69.0,30.00,West,275,0.0,0.0,72,0.00,,,0.00,weatherlink.com 1.10,2013-09-04 08:16:00,
2013-09-04 04:31:00,78.8,68.0,30.00,West,275,0.0,0.0,69,0.00,,,0.00,weatherlink.com 1.10,2013-09-04 08:31:00,
2013-09-04 04:46:00,78.3,67.0,30.00,West,275,0.0,0.0,68,0.00,,,0.00,weatherlink.com 1.10,2013-09-04 08:46:00,
2013-09-04 05:01:00,78.1,65.0,30.00,West,275,0.0,0.0,65,0.00,,,0.00,weatherlink.com 1.10,2013-09-04 09:01:00,
2013-09-04 05:16:00,77.7,65.0,30.00,West,275,0.0,0.0,64,0.00,,,0.00,weatherlink.com 1.10,2013-09-04 09:16:00,
2013-09-04 05:31:00,77.5,64.0,30.00,West,275,0.0,0.0,63,0.00,,,0.00,weatherlink.com 1.10,2013-09-04 09:31:00,
2013-09-04 05:46:00,77.4,63.0,30.00,West,275,0.0,0.0,62,0.00,,,0.00,weatherlink.com 1.10,2013-09-04 09:46:00,
2013-09-04 06:01:00,77.3,63.0,30.01,West,275,0.0,0.0,61,0.00,,,0.00,weatherlink.com 1.10,2013-09-04 10:01:00,
2013-09-04 06:16:00,77.1,62.0,30.02,West,275,0.0,0.0,59,0.00,,,0.00,weatherlink.com 1.10,2013-09-04 10:16:00,
2013-09-04 06:31:00,76.9,60.0,30.02,West,275,0.0,0.0,57,0.00,,,0.00,weatherlink.com 1.10,2013-09-04 10:31:00,
2013-09-04 06:46:00,76.9,58.0,30.03,West,275,0.0,0.0,53,0.00,,,0.00,weatherlink.com 1.10,2013-09-04 10:46:00,
2013-09-04 07:01:00,76.8,58.0,30.03,West,275,0.0,0.0,52,0.00,,,0.00,weatherlink.com 1.10,2013-09-04 11:01:00,
2013-09-04 07:16:00,76.7,55.0,30.03,West,275,0.0,0.0,48,0.00,,,0.00,weatherlink.com 1.10,2013-09-04 11:16:00,
2013-09-04 07:31:00,76.8,54.0,30.04,West,275,0.0,0.0,46,0.00,,,0.00,weatherlink.com 1.10,2013-09-04 11:31:00,
2013-09-04 07:46:00,77.0,54.0,30.04,West,275,0.0,0.0,45,0.00,,,0.00,weatherlink.com 1.10,2013-09-04 11:46:00,
2013-09-04 08:02:00,77.6,53.0,30.05,West,275,0.0,0.0,43,0.00,,,0.00,weatherlink.com 1.10,2013-09-04 12:02:00,
2013-09-04 08:17:00,78.3,56.0,30.05,NW,321,0.0,0.0,47,0.00,,,0.00,weatherlink.com 1.10,2013-09-04 12:17:00,
2013-09-04 08:32:00,79.6,64.0,30.05,ENE,73,0.0,0.0,60,0.00,,,0.00,weatherlink.com 1.10,2013-09-04 12:32:00,
2013-09-04 08:47:00,80.0,68.0,30.05,South,189,0.0,0.0,67,0.00,,,0.00,weatherlink.com 1.10,2013-09-04 12:47:00,
2013-09-04 09:02:00,80.7,71.0,30.06,North,11,0.0,0.0,72,0.00,,,0.00,weatherlink.com 1.10,2013-09-04 13:02:00,
2013-09-04 09:17:00,81.5,73.0,30.06,NNE,13,0.0,0.0,75,0.00,,,0.00,weatherlink.com 1.10,2013-09-04 13:17:00,
2013-09-04 09:32:00,82.3,74.0,30.07,ENE,74,0.0,0.0,77,0.00,,,0.00,weatherlink.com 1.10,2013-09-04 13:32:00,
2013-09-04 09:47:00,82.7,75.0,30.07,NNE,33,0.0,0.0,77,0.00,,,0.00,weatherlink.com 1.10,2013-09-04 13:47:00,
2013-09-04 10:17:00,84.3,76.0,30.08,ENE,65,0.0,0.0,77,0.00,,,0.00,weatherlink.com 1.10,2013-09-04 14:17:00,
2013-09-04 10:32:00,83.9,76.0,30.09,ESE,123,0.0,0.0,77,0.00,,,0.00,weatherlink.com 1.10,2013-09-04 14:32:00,
2013-09-04 10:47:00,83.6,76.0,30.09,SSE,154,0.0,6.0,77,0.00,,,0.00,weatherlink.com 1.10,2013-09-04 14:47:00,
2013-09-04 11:02:00,83.1,76.0,30.09,SW,226,0.0,1.0,78,0.00,,,0.00,weatherlink.com 1.10,2013-09-04 15:02:00,
2013-09-04 11:17:00,83.3,75.0,30.08,SW,218,0.0,1.0,77,0.00,,,0.00,weatherlink.com 1.10,2013-09-04 15:17:00,
2013-09-04 11:32:00,83.8,75.0,30.08,South,186,0.0,1.0,75,0.00,,,0.00,weatherlink.com 1.10,2013-09-04 15:32:00,
2013-09-04 11:47:00,84.4,76.0,30.08,South,186,0.0,1.0,75,0.00,,,0.00,weatherlink.com 1.10,2013-09-04 15:47:00,
2013-09-04 12:02:00,84.9,76.0,30.08,South,186,0.0,1.0,74,0.00,,,0.00,weatherlink.com 1.10,2013-09-04 16:02:00,
2013-09-04 12:17:00,85.2,76.0,30.08,SW,234,0.0,1.0,74,0.00,,,0.00,weatherlink.com 1.10,2013-09-04 16:17:00,
2013-09-04 12:32:00,85.0,76.0,30.08,SW,226,4.0,5.0,75,0.00,,,0.00,weatherlink.com 1.10,2013-09-04 16:32:00,
2013-09-04 12:46:00,85.1,76.0,30.07,SW,226,6.0,6.0,75,0.00,,,0.00,weatherlink.com 1.10,2013-09-04 16:46:00,
2013-09-04 13:02:00,84.8,77.0,30.07,WSW,239,5.0,7.0,76,0.00,,,0.00,weatherlink.com 1.10,2013-09-04 17:02:00,
2013-09-04 13:17:00,85.0,77.0,30.07,WSW,244,5.0,6.0,76,0.00,,,0.00,weatherlink.com 1.10,2013-09-04 17:17:00,
2013-09-04 13:31:00,85.3,77.0,30.06,WSW,244,4.0,5.0,75,0.00,,,0.00,weatherlink.com 1.10,2013-09-04 17:31:00,
2013-09-04 13:46:00,85.7,77.0,30.06,SW,234,4.0,5.0,75,0.00,,,0.00,weatherlink.com 1.10,2013-09-04 17:46:00,
2013-09-04 14:02:00,86.0,76.0,30.06,WSW,242,5.0,7.0,72,0.00,,,0.00,weatherlink.com 1.10,2013-09-04 18:02:00,
2013-09-04 14:17:00,86.8,76.0,30.05,SSW,207,4.0,5.0,69,0.00,,,0.00,weatherlink.com 1.10,2013-09-04 18:17:00,
2013-09-04 14:32:00,87.3,75.0,30.05,SW,236,4.0,7.0,66,0.00,,,0.00,weatherlink.com 1.10,2013-09-04 18:32:00,
2013-09-04 14:47:00,87.7,75.0,30.05,SW,223,4.0,7.0,66,0.00,,,0.00,weatherlink.com 1.10,2013-09-04 18:47:00,
2013-09-04 15:02:00,88.0,75.0,30.04,WSW,247,3.0,6.0,66,0.00,,,0.00,weatherlink.com 1.10,2013-09-04 19:02:00,
2013-09-04 15:17:00,88.2,75.0,30.03,WSW,252,4.0,6.0,66,0.00,,,0.00,weatherlink.com 1.10,2013-09-04 19:17:00,
2013-09-04 15:32:00,88.7,74.0,30.03,West,267,0.0,4.0,63,0.00,,,0.00,weatherlink.com 1.10,2013-09-04 19:32:00,
2013-09-04 15:47:00,89.6,74.0,30.03,West,263,0.0,2.0,60,0.00,,,0.00,weatherlink.com 1.10,2013-09-04 19:47:00,
2013-09-04 16:02:00,89.3,76.0,30.03,North,355,0.0,9.0,64,0.00,,,0.00,weatherlink.com 1.10,2013-09-04 20:02:00,
2013-09-04 16:17:00,90.2,76.0,30.02,NNW,346,0.0,0.0,64,0.00,,,0.00,weatherlink.com 1.10,2013-09-04 20:17:00,
2013-09-04 16:32:00,90.3,76.0,30.03,North,5,0.0,2.0,63,0.00,,,0.00,weatherlink.com 1.10,2013-09-04 20:32:00,
2013-09-04 16:47:00,89.1,75.0,30.03,NNE,22,0.0,2.0,63,0.00,,,0.00,weatherlink.com 1.10,2013-09-04 20:47:00,
2013-09-04 17:02:00,88.4,75.0,30.03,North,355,0.0,2.0,65,0.00,,,0.00,weatherlink.com 1.10,2013-09-04 21:02:00,
2013-09-04 17:17:00,87.0,75.0,30.04,ESE,113,2.0,11.0,68,0.00,,,0.00,weatherlink.com 1.10,2013-09-04 21:17:00,
2013-09-04 17:32:00,85.5,74.0,30.05,SE,128,9.0,13.0,69,0.00,,,0.00,weatherlink.com 1.10,2013-09-04 21:32:00,
2013-09-04 17:47:00,83.3,74.0,30.04,ENE,78,5.0,17.0,73,0.00,,,0.00,weatherlink.com 1.10,2013-09-04 21:47:00,
2013-09-04 18:02:00,82.1,74.0,30.05,East,90,3.0,10.0,75,0.00,,,0.00,weatherlink.com 1.10,2013-09-04 22:02:00,
2013-09-04 18:17:00,81.9,74.0,30.04,NE,54,0.0,5.0,76,0.00,,,0.00,weatherlink.com 1.10,2013-09-04 22:17:00,
2013-09-04 18:32:00,81.7,73.0,30.05,ESE,117,7.0,9.0,76,0.00,,,0.00,weatherlink.com 1.10,2013-09-04 22:32:00,
2013-09-04 18:47:00,81.1,73.0,30.05,SE,135,0.0,5.0,77,0.00,,,0.00,weatherlink.com 1.10,2013-09-04 22:47:00,
2013-09-04 19:02:00,81.2,74.0,30.05,SSE,163,5.0,5.0,78,0.00,,,0.00,weatherlink.com 1.10,2013-09-04 23:02:00,
2013-09-04 19:17:00,81.9,72.0,30.06,SSW,195,7.0,11.0,73,0.00,,,0.00,weatherlink.com 1.10,2013-09-04 23:17:00,
2013-09-04 19:32:00,81.9,72.0,30.05,SSW,211,10.0,13.0,73,0.00,,,0.00,weatherlink.com 1.10,2013-09-04 23:32:00,
2013-09-04 19:47:00,81.8,73.0,30.06,SW,228,8.0,13.0,75,0.00,,,0.00,weatherlink.com 1.10,2013-09-04 23:47:00,
2013-09-04 20:02:00,81.8,72.0,30.07,WSW,247,15.0,18.0,72,0.00,,,0.00,weatherlink.com 1.10,2013-09-05 00:02:00,
2013-09-04 20:17:00,80.4,72.0,30.08,WSW,255,15.0,19.0,75,0.00,,,0.00,weatherlink.com 1.10,2013-09-05 00:17:00,
2013-09-04 20:32:00,79.2,71.0,30.09,West,273,11.0,14.0,76,0.00,,,0.00,weatherlink.com 1.10,2013-09-05 00:32:00,
2013-09-04 20:47:00,78.8,71.0,30.09,West,261,8.0,11.0,77,0.00,,,0.00,weatherlink.com 1.10,2013-09-05 00:47:00,
2013-09-04 21:02:00,78.4,71.0,30.09,WNW,294,0.0,9.0,78,0.00,,,0.00,weatherlink.com 1.10,2013-09-05 01:02:00,
2013-09-04 21:17:00,78.0,71.0,30.08,NW,315,0.0,7.0,78,0.00,,,0.00,weatherlink.com 1.10,2013-09-05 01:17:00,
2013-09-04 21:32:00,77.6,70.0,30.09,WNW,292,0.0,2.0,78,0.00,,,0.00,weatherlink.com 1.10,2013-09-05 01:32:00,
2013-09-04 21:47:00,77.9,71.0,30.09,SW,226,3.0,5.0,78,0.00,,,0.00,weatherlink.com 1.10,2013-09-05 01:47:00,
2013-09-04 22:02:00,78.4,71.0,30.09,SW,223,6.0,7.0,78,0.00,,,0.00,weatherlink.com 1.10,2013-09-05 02:02:00,
2013-09-04 22:17:00,78.0,71.0,30.10,SSE,162,0.0,7.0,78,0.00,,,0.00,weatherlink.com 1.10,2013-09-05 02:17:00,
2013-09-04 22:32:00,77.6,70.0,30.10,SSE,159,1.0,6.0,76,0.00,,,0.00,weatherlink.com 1.10,2013-09-05 02:32:00,
2013-09-04 22:47:00,77.3,68.0,30.10,SE,131,0.0,2.0,74,0.00,,,0.00,weatherlink.com 1.10,2013-09-05 02:47:00,
2013-09-04 23:02:00,77.1,70.0,30.10,SSE,156,0.0,1.0,78,0.00,,,0.00,weatherlink.com 1.10,2013-09-05 03:02:00,
2013-09-04 23:17:00,77.2,70.0,30.09,SE,134,0.0,5.0,77,0.00,,,0.00,weatherlink.com 1.10,2013-09-05 03:17:00,
2013-09-04 23:32:00,76.9,69.0,30.09,ESE,123,0.0,0.0,77,0.00,,,0.00,weatherlink.com 1.10,2013-09-05 03:32:00,
2013-09-04 23:47:00,76.3,68.0,30.09,ESE,123,0.0,0.0,75,0.00,,,0.00,weatherlink.com 1.10,2013-09-05 03:47:00,